Waarnemingen

Advertentie
Mijn weer
Thomastown, Groot Brittannië (3901): temperatuur & dauwpunt: 15.01.2021 10:00:00 - 21.01.2021 10:00:00 (GMT)Thomastown, Groot Brittannië (3901): temperatuur -20cm & temperatuur -100cm: 15.01.2021 10:00:00 - 21.01.2021 10:00:00 (GMT)Thomastown, Groot Brittannië (3901): windsnelheid & windstoten: 15.01.2021 10:00:00 - 21.01.2021 10:00:00 (GMT)Thomastown, Groot Brittannië (3901): windrichting: 15.01.2021 10:00:00 - 21.01.2021 10:00:00 (GMT)Thomastown, Groot Brittannië (3901): luchtdruk: 15.01.2021 10:00:00 - 21.01.2021 10:00:00 (GMT)Thomastown, Groot Brittannië (3901): zicht: 15.01.2021 10:00:00 - 21.01.2021 10:00:00 (GMT)Thomastown, Groot Brittannië (3901): Zonneschijnduur: 15.01.2021 10:00:00 - 21.01.2021 10:00:00 (GMT)Thomastown, Groot Brittannië (3901): neerslag: 15.01.2021 10:00:00 - 21.01.2021 10:00:00 (GMT)
Datum & Tijd tt [°C] td [°C] tt -20cm [°C] tt -100cm [°C] ff [km/u] ff [kn] fx [km/u] fx [kn] dd ppp [hPa] vv [km] sd [min] rr [mm]
21.01.2021 10:00:00 - - - - - - - - - - - - 0,0
21.01.2021 09:00:00 2,7 1,7 4,9 6,0 9 5 - - W 980,3 50 0 0,0
21.01.2021 08:00:00 2,7 2,1 - - 13 7 - - W 979,1 45 0 0,2
21.01.2021 07:00:00 2,5 2,0 - - 15 8 - - W 978,3 29 0 0,0
21.01.2021 06:00:00 2,5 2,0 - - 21 11 - - W 977,9 45 0 0,8
21.01.2021 05:00:00 2,3 1,7 - - 16 9 - - W 977,7 14 0 0,2
21.01.2021 04:00:00 1,9 1,4 - - 18 10 - - WZW 977,1 50 0 0,2
21.01.2021 03:00:00 1,5 1,1 - - 16 9 - - W 977,5 24 0 0,0
21.01.2021 02:00:00 1,1 0,7 - - 11 6 - - WZW 977,5 24 0 0,0
21.01.2021 01:00:00 0,8 0,6 - - 11 6 - - W 977,5 35 0 0,0
21.01.2021 00:00:00 -0,1 -0,2 - - 5 3 - - W 977,9 50 - 0,0
20.01.2021 23:00:00 0,3 0,3 - - 9 5 - - W 978,0 50 0 0,0
20.01.2021 22:00:00 -0,1 -0,1 - - 5 3 - - W 978,4 24 0 0,0
20.01.2021 21:00:00 -0,5 -0,5 - - 5 3 - - WNW 978,6 9 0 0,0
20.01.2021 20:00:00 -0,6 -0,6 - - 4 2 - - WNW 978,9 2,1 0 0,0
20.01.2021 19:00:00 0,5 0,5 - - 2 1 - - WNW 979,0 5 0 0,0
20.01.2021 18:00:00 0,6 0,6 - - 4 2 - - NNO 979,3 0,4 0 0,0
20.01.2021 17:00:00 1,1 1,1 - - 0 0 - - N 979,2 0,1 0 0,0
20.01.2021 16:00:00 1,6 1,6 - - 0 0 - - N 979,3 0,4 0 0,0
20.01.2021 15:00:00 1,7 1,7 - - 5 3 - - NNW 979,3 1,3 0 0,0
20.01.2021 14:00:00 1,5 1,5 - - 5 3 - - N 980,2 0,8 0 0,0
20.01.2021 13:00:00 1,7 1,7 - - 5 3 - - NNW 980,8 0,4 0 0,0
20.01.2021 12:00:00 1,4 1,4 - - 5 3 - - NNO 981,6 0,2 0 0,0
20.01.2021 11:00:00 1,2 1,2 - - 5 3 - - N 981,9 0,3 0 0,0
20.01.2021 10:00:00 1,8 1,8 - - 5 3 - - NNW 982,2 5 0 0,0
20.01.2021 09:00:00 2,0 1,9 5,2 5,9 4 2 - - NW 982,6 17 0 0,0
20.01.2021 08:00:00 2,2 2,1 - - 8 4 - - NW 982,5 50 0 0,0
20.01.2021 07:00:00 2,7 2,7 - - 5 3 - - NNW 982,8 45 0 0,0
20.01.2021 06:00:00 2,8 2,8 - - 5 3 - - NNW 983,1 21 0 0,0
20.01.2021 05:00:00 2,9 2,9 - - 5 3 - - N 983,4 16 0 0,0
20.01.2021 04:00:00 2,9 2,9 - - 5 3 - - NW 983,6 10 0 0,0
20.01.2021 03:00:00 3,0 3,0 - - 4 2 - - NNW 983,7 14 0 0,2
20.01.2021 02:00:00 3,1 3,1 - - 8 4 - - NNW 984,1 13 0 0,2
20.01.2021 01:00:00 3,5 3,5 - - 8 4 - - NNW 984,5 8 0 0,4
20.01.2021 00:00:00 3,7 3,7 - - 8 4 - - NNW 984,8 5 - 0,2
19.01.2021 23:00:00 3,9 3,9 - - 5 3 - - NW 984,8 5 0 0,4
19.01.2021 22:00:00 4,1 4,1 - - 9 5 - - NNW 985,1 4,0 0 0,4
19.01.2021 21:00:00 4,5 4,5 - - 8 4 - - NW 985,5 2,9 0 0,6
19.01.2021 20:00:00 4,6 4,6 - - 8 4 - - NNW 985,8 3,5 0 0,4
19.01.2021 19:00:00 4,8 4,7 - - 9 5 - - N 986,0 4,8 0 0,4
19.01.2021 18:00:00 5,0 5,0 - - 11 6 - - N 986,5 5 0 0,8
19.01.2021 17:00:00 5,6 5,5 - - 8 4 - - N 986,9 4,6 0 1,2
19.01.2021 16:00:00 5,9 5,6 - - 5 3 - - N 987,6 3,8 0 1,2
19.01.2021 15:00:00 6,2 6,0 - - 5 3 - - NNW 988,2 4,2 0 1,6
19.01.2021 14:00:00 6,2 6,1 - - 13 7 - - ONO 989,5 5 0 2,0
19.01.2021 13:00:00 5,7 5,5 - - 8 4 - - ONO 991,2 4,5 0 3,0
19.01.2021 12:00:00 5,7 5,6 - - 18 10 - - ONO 992,5 6 0 3,6
19.01.2021 11:00:00 6,2 6,2 - - 11 6 - - O 993,7 6 0 2,8
19.01.2021 10:00:00 6,2 6,2 - - 4 2 - - NNO 995,1 5 0 1,6
19.01.2021 09:00:00 6,0 6,0 4,9 5,9 4 2 - - N 996,2 11 0 1,8
19.01.2021 08:00:00 6,0 6,0 - - 2 1 - - ZO 997,2 0,4 0 2,6
19.01.2021 07:00:00 6,2 6,2 - - 2 1 - - N 998,0 4,5 0 2,2
19.01.2021 06:00:00 6,4 6,4 - - 8 4 - - NNW 998,9 8 0 1,0
19.01.2021 05:00:00 7,2 7,1 - - 5 3 - - N 999,5 9 0 1,2
19.01.2021 04:00:00 7,7 7,6 - - 4 2 - - WNW 1000,0 15 0 0,8
19.01.2021 03:00:00 7,7 7,6 - - 4 2 - - WNW 1000,3 16 0 0,4
19.01.2021 02:00:00 7,6 7,5 - - 4 2 - - ZW 1000,9 20 0 0,2
19.01.2021 01:00:00 7,6 7,6 - - 9 5 - - W 1001,5 20 0 0,2
19.01.2021 00:00:00 7,1 7,1 - - 8 4 - - Z 1002,4 9 - 0,2
18.01.2021 23:00:00 6,9 6,9 - - 8 4 - - Z 1002,9 9 0 0,6
18.01.2021 22:00:00 6,8 6,8 - - 9 5 - - Z 1003,9 11 0 0,0
18.01.2021 21:00:00 6,6 6,6 - - 15 8 - - ZZW 1004,7 13 0 0,2
18.01.2021 20:00:00 6,4 6,3 - - 13 7 - - Z 1005,8 10 0 0,2
18.01.2021 19:00:00 6,1 6,1 - - 13 7 - - Z 1006,9 17 0 0,0
18.01.2021 18:00:00 5,7 5,7 - - 4 2 - - O 1008,0 4,4 0 0,0
18.01.2021 17:00:00 5,7 5,6 - - 9 5 - - ZZO 1008,9 2,2 0 0,2
18.01.2021 16:00:00 5,7 5,5 - - 9 5 - - Z 1010,0 9 0 0,0
18.01.2021 15:00:00 5,8 5,5 - - 16 9 - - Z 1011,1 30 0 0,0
18.01.2021 14:00:00 5,5 5,1 - - 13 7 - - Z 1012,6 50 0 0,0
18.01.2021 13:00:00 5,1 4,7 - - 11 6 - - Z 1013,9 16 0 0,0
18.01.2021 12:00:00 4,5 3,9 - - 9 5 - - Z 1015,4 30 6 0,0
18.01.2021 11:00:00 5,0 4,2 - - 9 5 - - Z 1016,1 45 6 0,0
18.01.2021 10:00:00 3,7 3,0 - - 11 6 - - Z 1017,0 45 0 0,0
18.01.2021 09:00:00 3,4 2,2 4,7 5,7 11 6 - - ZW 1017,3 50 0 0,0
18.01.2021 08:00:00 4,2 2,7 - - 16 9 - - ZW 1017,7 50 0 0,0
18.01.2021 07:00:00 4,3 3,3 - - 13 7 - - ZW 1018,1 50 0 0,0
18.01.2021 06:00:00 4,5 3,9 - - 15 8 - - WZW 1018,6 45 0 0,0
18.01.2021 05:00:00 5,0 3,9 - - 13 7 - - W 1019,1 18 0 0,0
18.01.2021 04:00:00 4,9 4,1 - - 15 8 - - ZW 1019,5 12 0 0,0
18.01.2021 03:00:00 5,0 4,0 - - 9 5 - - ZW 1019,8 50 0 0,0
18.01.2021 02:00:00 4,8 4,0 - - 11 6 - - ZW 1020,1 29 0 0,0
18.01.2021 01:00:00 5,0 4,0 - - 9 5 - - WZW 1020,7 26 0 0,0
18.01.2021 00:00:00 4,9 3,8 - - 9 5 - - ZW 1021,3 40 - 0,0
17.01.2021 23:00:00 4,6 3,5 - - 11 6 - - ZZW 1021,8 40 0 0,0
17.01.2021 22:00:00 5,2 3,9 - - 13 7 - - WZW 1022,3 45 0 0,0
17.01.2021 21:00:00 5,1 3,9 - - 15 8 - - WZW 1022,3 35 0 0,0
17.01.2021 20:00:00 5,5 4,5 - - 15 8 - - WZW 1022,9 40 0 0,0
17.01.2021 19:00:00 5,8 4,5 - - 11 6 - - ZW 1023,1 45 0 0,0
17.01.2021 18:00:00 5,8 4,9 - - 9 5 - - ZW 1023,3 22 0 0,0
17.01.2021 17:00:00 5,8 4,9 - - 9 5 - - ZW 1023,2 15 0 0,2
17.01.2021 16:00:00 6,5 4,6 - - 13 7 - - WZW 1023,1 35 0 0,0
17.01.2021 15:00:00 6,3 4,7 - - 8 4 - - ZW 1023,4 20 0 0,0
17.01.2021 14:00:00 6,1 4,2 - - 9 5 - - W 1023,7 25 0 0,0
17.01.2021 13:00:00 5,9 3,9 - - 16 9 - - WZW 1024,0 30 0 0,0
17.01.2021 12:00:00 5,3 3,6 - - 11 6 - - WZW 1024,5 28 0 0,0
17.01.2021 11:00:00 4,8 3,3 - - 15 8 - - WZW 1024,5 22 0 0,0
17.01.2021 10:00:00 4,1 3,0 - - 13 7 - - W 1024,1 20 0 0,0
17.01.2021 09:00:00 4,1 3,1 4,7 5,7 9 5 - - W 1023,9 16 0 0,2
17.01.2021 08:00:00 3,2 1,9 - - 5 3 - - ZZO 1023,5 17 0 0,0
17.01.2021 07:00:00 3,4 2,2 - - 9 5 - - WZW 1022,9 19 0 0,0
17.01.2021 06:00:00 4,3 2,6 - - 4 2 - - W 1022,4 28 0 0,2
17.01.2021 05:00:00 5,0 3,6 - - 13 7 - - WNW 1021,9 12 0 0,0
17.01.2021 04:00:00 4,9 2,9 - - 18 10 - - WNW 1021,2 29 0 0,0
17.01.2021 03:00:00 4,4 2,6 - - 9 5 - - WNW 1020,9 29 0 0,2
17.01.2021 02:00:00 4,6 3,6 - - 15 8 - - NW 1020,4 8 0 0,4
17.01.2021 01:00:00 2,9 2,3 - - 2 1 - - ZO 1020,3 27 0 0,0
17.01.2021 00:00:00 3,7 2,4 - - 8 4 - - W 1020,0 40 - 0,4
16.01.2021 23:00:00 4,4 2,6 - - 9 5 48 26 WNW 1019,2 35 0 0,0
16.01.2021 22:00:00 5,1 1,9 - - 18 10 - - WNW 1018,8 50 0 0,2
16.01.2021 21:00:00 5,5 3,4 - - 21 11 50 27 WNW 1018,1 15 0 0,4
16.01.2021 20:00:00 4,8 2,9 - - 13 7 - - W 1017,7 40 0 0,4
16.01.2021 19:00:00 5,6 2,9 - - 15 8 - - W 1017,4 25 0 0,0
16.01.2021 18:00:00 6,0 2,9 - - 18 10 - - W 1017,1 30 0 0,0
16.01.2021 17:00:00 6,1 3,2 - - 16 9 - - W 1016,8 18 0 0,0
16.01.2021 16:00:00 6,0 3,9 - - 24 13 52 28 W 1016,4 26 0 0,2
16.01.2021 15:00:00 7,2 3,5 - - 24 13 55 30 W 1015,6 7 24 0,0
16.01.2021 14:00:00 7,6 3,2 - - 24 13 50 27 WNW 1015,2 15 18 0,0
16.01.2021 13:00:00 7,9 4,0 - - 28 15 55 30 WNW 1014,5 13 42 0,0
16.01.2021 12:00:00 7,6 4,2 - - 34 18 65 35 WNW 1014,5 12 30 0,2
16.01.2021 11:00:00 8,2 5,1 - - 26 14 55 30 WNW 1013,7 13 24 0,0
16.01.2021 10:00:00 7,8 5,3 - - 24 13 50 27 WNW 1013,1 15 0 0,0
16.01.2021 09:00:00 7,8 5,4 4,7 5,7 29 16 54 29 WNW 1011,5 14 0 0,2
16.01.2021 08:00:00 7,3 5,6 - - 18 10 - - W 1010,4 21 0 0,2
16.01.2021 07:00:00 7,3 5,7 - - 18 10 - - WZW 1010,0 24 0 0,0
16.01.2021 06:00:00 7,4 5,6 - - 13 7 - - W 1009,7 12 0 0,0
16.01.2021 05:00:00 7,4 5,6 - - 13 7 - - W 1009,0 19 0 0,0
16.01.2021 04:00:00 7,3 5,7 - - 11 6 - - W 1008,6 40 0 0,4
16.01.2021 03:00:00 8,3 7,7 - - 13 7 - - WZW 1008,2 20 0 0,0
16.01.2021 02:00:00 9,1 8,9 - - 16 9 - - WZW 1007,4 5 0 0,6
16.01.2021 01:00:00 8,4 8,4 - - 13 7 - - Z 1007,4 7 0 1,2
16.01.2021 00:00:00 7,9 7,8 - - 22 12 - - ZZO 1008,2 6 - 1,0
15.01.2021 23:00:00 7,7 7,6 - - 28 15 46 25 ZZO 1009,3 5 0 1,4
15.01.2021 22:00:00 7,5 7,3 - - 35 19 52 28 Z 1010,5 4,8 0 0,4
15.01.2021 21:00:00 7,3 7,0 - - 29 16 52 28 ZZO 1012,0 12 0 1,2
15.01.2021 20:00:00 6,9 6,6 - - 31 17 46 25 ZZO 1013,2 11 0 2,2
15.01.2021 19:00:00 6,8 6,2 - - 34 18 61 33 ZZO 1014,9 10 0 0,4
15.01.2021 18:00:00 6,4 5,3 - - 34 18 57 31 ZO 1016,4 30 0 0,0
15.01.2021 17:00:00 6,3 5,2 - - 34 18 48 26 ZZO 1017,5 29 0 0,0
15.01.2021 16:00:00 5,5 4,8 - - 26 14 - - ZZO 1018,9 22 0 0,0
15.01.2021 15:00:00 4,9 4,4 - - 24 13 - - ZZO 1020,3 23 0 0,0
15.01.2021 14:00:00 4,0 3,9 - - 18 10 - - ZZO 1021,5 19 0 0,0
15.01.2021 13:00:00 3,3 3,3 - - 21 11 - - ZZO 1023,1 14 0 0,0
15.01.2021 12:00:00 2,0 2,0 - - 16 9 - - ZZO 1024,7 6 0 0,0
15.01.2021 11:00:00 1,5 1,5 - - 18 10 - - ZZO 1025,7 0,7 0 0,2
15.01.2021 10:00:00 0,7 0,7 - - 13 7 - - ZZO 1025,9 0,3 0 0,0

tt = temperatuur
td = dauwpunt
tt -20cm = temperatuur -20cm
tt -100cm = temperatuur -100cm
ff = windsnelheid
fx = windstoten
dd = windrichting
ppp = luchtdruk
vv = zicht
sd = Zonneschijnduur
rr = neerslag

Weerstations in de omgeving